Hovedside
METAR-TAF:

METAR-TAF

Lufthavner :

Ontario Municipal Airport

Ontario, Oregon, USA

breddegrad: 44-01-10N, lengdegrad: 117-00-35W, høyde over havet: 667 m

Gjeldene værobservasjon

Denne rapporten ble laget for 41 minutter siden, klokken 00:53 UTC
Vind 6 kt fra Nord
Temperatur 12°C
Luftfuktighet 38%
Trykk 1017 hPa
Sikt: 16.1 km
Skyfri himmel

METAR: KONO 290053Z AUTO 36006KT 10SM CLR 12/M02 A3003 RMK AO2 SLP182 T01171017

Tid: 18:34 (01:34 UTC)


TAF: fraværende

Værobservasjoner og værvarsel for over 4000 flyplasser (METAR- og TAF-rapporter).

Tilgjengelige stasjoner er representert av de røde og gule prikkene på kartet.

Hold musepekeren over prikken for å se navnet på stasjonen.

Klikk så for å se værobservasjoner og -varsler.

For å forandre kartet kan du klikke på den grønne knappen med svart kryss for å zoome inn, på den grønne knappen med strek for å zoome ut, eller på de grønne pilene for å se tilstøtende kart.


METAR-TAF: